RH
88 87 86 80 92 70 80 63 36 36 40 31 33 46 53 50 60 92 74 83 66 70 85 91 93 93 88 90 87 88 94 93 86 94 79 76 80 92 85 83 95 95 95 94 95 93 92 93 80
66 75 82 77 89 95 52 44 41 38 33 33 33 35 45 63 50 68 83 84 69 78 73 68 85 82 88 93 86 93 96 93 94 91 80 75 81 79 91 94 96 94 95 93 91 91 90 89 89
64 66 79 62 79 58 43 54 41 32 31 36 38 38 51 60 56 60 76 84 80 80 65 70 71 78 91 93 89 95 96 94 95 84 89 94 93 80 94 89 93 94 94 93 90 88 86 85 86
65 63 56 63 68 27 36 38 32 32 30 30 33 50 46 49 54 62 66 68 62 64 55 77 80 94 93 94 95 96 95 94 95 79 83 94 97 93 94 90 91 90 91 90 88 88 85 84 84
65 49 57 66 50 26 28 30 35 36 33 32 33 47 61 54 53 62 65 62 58 65 59 77 89 90 94 95 95 95 95 94 86 78 91 95 96 94 94 95 93 89 88 88 88 89 84 81 87
63 46 82 55 26 24 25 25 38 40 30 34 44 54 65 55 54 56 58 56 61 62 55 74 86 82 83 95 96 94 96 95 89 92 96 96 96 96 95 94 92 86 79 76 76 76 67 63 64
50 57 76 60 27 26 24 22 31 31 30 32 34 56 61 52 54 55 54 56 55 53 50 62 71 84 94 94 95 95 96 96 96 96 94 90 88 86 73 86 88 83 76 72 71 70 64 56 53
34 33 37 54 50 29 22 19 21 31 32 27 32 55 66 53 50 52 54 53 58 50 47 54 62 69 75 78 93 94 96 96 96 94 80 67 67 64 67 65 64 73 69 64 62 60 58 52 44
28 42 37 23 28 23 20 21 22 24 30 29 29 38 44 48 46 52 53 54 54 47 44 48 53 60 65 66 81 91 94 94 84 62 53 66 76 70 77 72 58 65 65 56 55 52 56 52 45
33 50 72 18 15 18 20 22 23 27 29 32 30 34 44 42 46 52 52 54 53 50 40 41 46 51 54 53 73 70 66 60 64 60 58 82 64 67 74 65 55 61 62 56 52 51 64 66 64
25 39 63 17 16 15 18 22 20 21 28 30 35 40 39 40 44 47 50 51 51 48 38 40 44 50 49 48 58 54 51 49 52 59 63 66 59 62 64 64 63 64 65 62 67 64 59 49 52
25 25 53 16 16 15 17 19 23 21 20 22 30 35 37 38 36 36 39 43 42 39 37 38 45 50 48 48 50 46 44 45 46 52 68 66 64 56 57 60 56 58 60 71 72 60 56 63 57
22 20 19 19 17 15 13 17 25 21 18 20 29 34 37 36 36 35 35 36 37 38 38 39 46 54 53 53 47 43 43 44 42 51 59 56 61 64 59 61 61 58 59 72 58 60 63 61 64
17 19 19 17 15 13 14 14 18 21 19 22 30 34 34 34 34 35 35 36 37 39 39 40 49 59 60 57 54 48 46 45 45 44 49 67 60 61 64 61 60 59 65 63 59 61 69 54 55
16 20 19 19 13 13 12 14 19 20 22 25 30 32 32 32 33 34 35 36 37 40 42 44 50 58 64 63 63 57 50 46 45 45 52 64 69 70 69 61 55 62 65 68 65 62 65 52 41
18 19 22 15 12 12 12 16 14 18 24 27 28 29 32 32 31 34 35 36 38 40 44 47 48 54 63 62 65 59 50 48 45 44 48 62 70 73 73 60 58 69 63 57 61 58 45 44 41
14 18 18 16 12 12 13 16 17 16 22 26 28 29 28 31 30 34 34 36 37 41 45 49 51 52 60 64 63 62 54 52 46 44 44 64 69 73 74 63 63 68 71 55 54 56 52 42 38
16 14 13 14 12 12 13 15 16 18 19 22 26 27 29 28 30 32 34 35 37 42 47 53 54 54 61 64 67 59 53 54 48 45 43 64 69 74 77 62 66 69 71 63 62 68 52 46 36
12 12 12 11 10 12 14 16 13 14 17 18 24 27 28 28 26 29 34 35 38 42 49 56 59 61 64 65 63 56 53 52 48 46 47 54 64 72 75 67 69 67 65 68 71 62 60 42 44
13 13 12 10 9 11 13 15 11 12 14 17 20 25 27 27 27 28 32 34 37 40 47 57 62 67 70 65 61 54 51 46 48 48 51 60 68 71 72 74 65 64 70 72 72 69 62 42 42
11 11 11 11 10 10 12 15 14 11 12 16 17 21 23 26 28 30 31 33 35 40 48 58 66 69 72 64 63 59 52 49 49 49 51 60 67 67 69 74 69 64 71 70 75 69 61 56 41
9 7 9 10 11 15 12 19 15 12 12 16 17 20 22 23 26 29 30 33 34 38 46 56 68 71 74 74 59 58 53 48 45 48 48 53 65 65 66 72 68 72 63 69 77 68 62 52 43
8 6 8 9 11 12 13 16 14 12 13 12 13 16 19 20 23 27 30 31 32 35 42 52 67 73 70 76 65 60 57 46 46 45 48 52 61 66 64 67 73 72 76 62 73 71 70 59 53
7 8 7 8 8 14 13 14 15 12 12 11 11 12 15 17 21 24 27 29 30 32 38 47 64 75 76 77 74 66 58 49 46 48 48 51 53 64 67 63 72 73 71 67 76 77 74 73 55
9 9 12 11 10 13 10 12 13 10 9 10 10 11 12 14 19 24 27 28 30 32 36 44 61 75 79 77 77 74 66 62 58 55 50 46 47 47 56 66 72 71 76 69 69 80 72 77 68
11 9 10 15 11 8 8 13 11 9 8 8 9 9 12 14 17 21 25 28 30 32 38 43 55 72 78 77 77 79 73 64 61 57 48 50 44 44 46 68 69 71 73 76 71 72 75 70 75
11 11 7 7 6 7 6 7 7 7 8 9 9 9 10 13 16 21 22 26 30 31 38 44 51 66 75 75 77 79 81 71 59 57 59 56 53 44 48 59 71 71 72 72 74 69 74 68 75
9 8 10 8 13 12 8 9 9 10 10 9 10 10 9 10 15 18 21 24 28 31 35 42 49 62 70 70 75 78 79 80 69 64 64 60 55 55 51 56 63 72 72 74 76 66 69 75 70
10 11 9 7 7 10 12 8 6 8 9 10 9 9 9 9 13 17 20 21 26 29 32 38 46 54 65 68 69 70 74 74 78 70 68 67 65 62 58 63 66 70 73 74 76 71 61 74 76
8 10 10 12 15 8 8 8 6 5 6 8 9 9 8 8 11 16 17 19 21 26 30 34 39 45 57 61 66 69 68 70 72 76 69 69 69 68 68 67 71 72 72 73 77 79 62 66 76
Wind_Speed
17 15 12 7 3 6 4 10 5 12 8 10 9 12 14 14 11 11 34 29 37 31 20 15 16 15 14 14 16 16 14 13 12 12 13 12 13 13 13 12 12 11 11 11 9 8 8 7 7
18 15 6 4 4 2 4 13 10 8 17 11 9 9 13 6 14 25 25 36 36 28 21 21 19 17 15 15 16 14 13 13 12 12 12 11 12 12 12 11 10 11 10 10 8 7 6 5 5
16 14 3 4 2 3 6 13 6 13 11 7 12 12 5 9 25 29 32 38 31 26 25 23 20 16 16 15 15 14 13 12 11 12 10 11 11 11 11 10 10 10 9 9 8 7 6 5 5
12 5 6 7 10 12 13 11 10 12 10 6 12 15 11 16 16 27 36 34 34 26 26 23 20 18 17 16 15 13 13 12 11 11 11 11 10 10 10 9 9 9 9 9 9 9 8 7 6
6 5 6 7 13 10 14 13 6 6 9 9 11 13 13 13 19 35 34 31 28 26 24 23 21 21 19 16 15 13 12 12 11 10 10 10 9 9 9 9 9 9 10 10 10 10 11 10 7
5 1 4 5 12 10 12 9 18 6 10 8 19 18 9 15 31 33 32 29 27 25 26 22 21 20 18 16 14 13 12 12 11 10 9 9 8 8 8 9 9 9 11 11 11 10 10 11 12
17 6 9 21 13 14 10 8 8 9 9 8 13 14 14 21 31 32 28 28 25 27 28 24 22 18 17 15 14 13 12 11 10 8 8 9 8 8 8 8 9 9 9 9 9 9 9 10 10
13 12 15 12 11 17 8 9 10 5 15 13 18 11 20 26 32 32 26 27 25 26 26 25 22 19 17 14 14 12 11 10 9 8 8 8 9 10 10 10 7 7 7 7 7 7 7 8 11
12 11 8 4 7 17 8 15 7 11 12 9 4 20 28 33 32 30 27 25 26 23 26 26 24 20 19 16 14 12 11 9 8 6 7 7 8 5 9 6 6 7 7 8 7 4 3 4 5
15 1 11 8 10 11 7 11 10 12 12 14 12 24 34 34 31 28 24 25 24 21 28 27 24 22 20 18 15 12 10 8 8 7 6 4 8 3 7 6 6 6 6 4 6 2 4 4 4
17 9 25 7 12 7 15 10 8 14 12 15 18 26 28 31 32 31 27 27 27 27 28 25 25 22 20 19 15 13 11 11 7 4 5 1 3 3 2 8 6 7 8 9 5 2 3 6 9
19 8 23 7 8 4 3 10 10 8 15 18 19 25 27 26 23 28 30 31 30 27 26 26 24 22 20 16 16 14 12 9 9 8 5 1 1 3 2 5 4 2 4 5 4 3 4 5 2
19 19 10 6 7 6 2 3 4 9 8 19 20 24 25 24 26 27 27 28 28 27 25 26 25 22 20 15 16 13 11 10 9 7 7 6 5 3 2 1 1 2 2 4 4 3 3 1 1
14 17 14 10 11 12 10 9 8 11 13 20 22 23 24 24 26 27 26 27 26 26 26 25 25 23 20 18 14 13 12 10 9 9 8 7 4 4 4 4 5 4 4 3 4 2 3 3 7
19 10 16 16 14 9 9 10 15 18 17 21 22 22 23 24 29 27 28 28 28 27 26 25 24 23 22 20 16 15 14 12 12 9 8 8 6 4 3 1 2 6 1 1 2 4 3 1 5
19 19 18 19 19 15 12 13 16 19 20 20 21 21 22 24 27 29 29 28 28 27 27 26 26 25 23 21 19 17 14 14 12 11 10 10 8 5 4 1 1 3 1 2 1 3 4 1 3
20 18 24 21 22 18 17 16 18 18 20 20 19 20 20 22 25 30 30 28 29 27 27 27 25 25 24 22 19 18 16 14 13 12 11 12 10 8 6 3 0 3 2 1 0 2 5 4 3
22 24 21 23 18 14 18 19 15 19 20 19 20 20 21 22 25 31 30 29 28 28 27 27 27 24 25 23 21 19 18 16 14 14 13 13 12 11 9 8 5 4 4 2 1 3 4 3 1
22 21 24 18 23 22 18 18 15 17 17 17 20 20 21 21 23 31 31 30 29 30 29 28 27 25 25 25 24 22 21 18 17 15 14 14 14 12 11 6 5 5 3 3 4 5 3 4 3
26 26 24 22 13 11 15 20 17 14 15 15 19 20 21 21 22 25 32 32 32 31 30 28 28 26 27 26 23 21 19 19 18 16 16 16 15 13 12 9 8 7 5 6 6 5 5 4 6
28 28 24 20 18 19 14 19 17 16 17 16 17 20 20 23 24 24 28 33 33 33 31 31 30 28 29 25 23 19 18 16 18 18 18 18 17 15 14 11 10 9 8 8 8 6 6 7 6
27 26 23 18 19 17 21 16 20 17 18 19 19 20 21 22 23 24 25 32 36 35 33 31 31 31 30 29 25 25 23 22 20 19 19 19 19 16 15 14 12 13 11 12 8 8 8 5 8
24 20 24 23 20 19 22 19 18 24 25 21 20 21 22 22 23 25 26 35 36 34 34 33 32 31 30 31 27 27 24 22 20 19 19 20 20 18 17 16 14 14 12 10 10 8 8 7 8
21 16 19 22 19 20 25 21 19 17 20 24 24 22 22 22 24 24 31 31 32 34 34 33 32 32 32 32 35 26 28 24 21 22 20 19 20 19 20 19 17 16 15 11 10 11 10 10 8
18 19 13 16 18 17 25 24 20 20 19 19 20 23 20 19 21 24 24 25 32 34 35 33 35 35 36 33 32 30 27 29 20 18 21 20 20 21 24 25 19 19 17 14 14 14 11 11 11
27 25 16 21 18 17 24 27 24 25 15 18 20 20 21 21 20 23 26 27 31 34 36 35 35 35 35 36 34 34 30 29 30 26 23 24 22 21 18 28 24 22 20 18 16 16 14 14 13
23 26 28 22 22 15 20 28 24 21 26 20 15 22 21 23 20 23 26 31 32 35 37 39 38 40 39 40 37 35 36 35 31 31 32 23 23 20 20 21 22 23 23 21 20 19 18 15 16
25 25 22 16 20 19 14 15 18 20 16 26 25 17 23 20 22 23 23 29 35 38 39 39 39 40 41 39 39 39 38 37 35 30 29 31 26 25 17 24 23 24 25 24 23 21 19 18 17
26 22 25 20 18 13 11 11 17 19 19 18 20 25 21 19 21 21 22 30 35 36 36 39 39 37 38 41 41 40 40 39 37 36 33 33 30 27 31 23 26 26 27 26 26 25 21 23 21
26 29 27 17 24 17 12 1 9 9 10 19 20 18 23 21 20 21 22 22 30 35 37 38 39 40 41 41 40 41 39 40 40 40 39 35 35 32 28 29 28 28 28 28 28 27 26 23 24
Wind_Direction
169 168 174 207 238 221 207 200 192 89 94 79 71 79 88 32 26 110 142 151 155 163 159 164 159 149 134 126 124 125 123 114 116 108 99 91 85 79 81 84 84 83 80 78 83 84 84 81 76
174 174 206 262 239 181 155 50 68 93 105 117 98 109 62 81 85 126 142 155 161 157 160 161 163 154 140 133 128 129 123 120 115 106 99 102 88 84 86 80 81 79 80 82 83 88 86 84 81
186 198 252 233 312 334 94 140 177 98 117 112 95 102 97 90 119 141 141 157 161 165 167 160 163 155 142 137 136 131 127 123 116 109 101 91 88 89 79 84 79 79 81 82 80 80 83 77 78
177 200 252 255 271 68 89 133 108 128 129 86 127 94 89 129 122 134 143 152 152 157 157 161 159 153 146 144 140 135 133 124 113 108 106 98 92 86 78 79 77 77 80 80 77 71 73 74 79
151 243 264 232 222 85 95 99 118 81 132 140 92 91 107 126 132 139 146 153 150 156 150 153 151 149 149 148 142 139 135 124 118 116 110 102 92 87 82 75 77 80 78 77 77 72 73 70 72
213 156 319 279 98 101 100 131 129 248 110 82 105 109 107 137 141 146 151 150 151 165 151 154 153 150 152 148 144 144 139 132 123 124 119 110 102 93 86 85 83 85 84 80 79 79 76 68 64
253 231 222 250 81 87 94 127 73 110 121 133 126 120 129 145 146 150 148 156 152 156 153 156 155 153 150 151 149 148 145 139 134 133 126 121 117 106 98 94 90 96 92 85 83 88 90 81 76
258 274 285 70 160 104 112 81 83 98 69 117 122 138 150 152 155 146 152 152 154 167 152 158 157 157 153 156 152 150 147 147 148 147 143 136 128 110 100 91 106 107 100 90 92 99 112 112 94
254 257 262 121 76 110 147 97 65 77 125 135 108 136 142 154 149 143 156 154 161 167 161 162 162 161 158 160 159 153 151 154 156 149 151 174 169 144 118 146 140 130 121 108 111 119 121 134 121
235 57 284 109 75 89 88 116 109 141 145 128 124 121 146 156 153 151 160 158 169 178 167 168 166 167 164 165 164 163 164 164 178 181 217 166 132 131 129 135 157 153 146 137 111 117 346 226 236
230 203 249 114 63 354 126 128 142 123 161 152 136 146 154 159 162 163 169 167 174 184 170 172 167 171 173 163 172 178 182 186 180 189 230 88 130 180 119 160 170 186 162 203 158 338 23 6 47
242 188 245 128 112 136 37 133 143 164 131 145 141 154 160 166 171 169 171 170 179 173 174 173 172 177 181 174 180 186 190 197 194 184 204 218 259 94 43 106 151 197 200 125 205 52 7 71 53
231 263 207 264 242 234 129 221 152 142 133 138 145 159 169 172 173 174 175 174 173 173 182 176 175 181 184 191 187 197 199 199 195 169 194 225 126 114 127 142 339 123 52 116 81 22 7 341 7
225 239 256 235 230 221 213 172 214 149 152 145 156 167 173 178 178 176 180 176 178 177 182 181 179 182 190 195 196 202 199 193 217 191 189 203 219 155 214 188 232 145 17 56 27 274 334 292 120
242 249 226 244 240 225 219 214 193 147 163 158 165 171 175 182 181 182 184 181 183 181 182 183 186 187 192 195 197 199 198 211 200 210 190 197 204 187 214 123 320 109 82 291 263 298 181 207 106
228 241 239 220 218 220 222 215 195 160 170 172 172 175 177 184 185 185 187 186 184 183 183 187 192 188 192 195 196 203 206 206 209 204 199 200 200 209 217 243 276 77 50 305 1 347 303 61 131
226 225 222 228 209 218 207 247 164 172 174 178 179 179 181 184 190 187 189 189 183 187 184 191 193 191 192 197 199 205 204 210 209 207 202 192 197 198 232 235 311 284 235 115 5 246 306 95 14
217 218 227 218 199 209 200 231 175 168 178 186 182 181 186 185 191 186 192 189 189 187 188 192 195 198 192 197 203 205 206 207 210 208 205 182 201 205 217 230 215 247 201 92 187 333 44 18 235
239 224 227 227 213 194 218 223 208 173 187 198 177 191 188 189 186 186 191 189 191 188 189 192 197 195 192 198 201 206 207 204 207 209 206 202 206 210 215 209 189 218 203 156 185 194 142 120 167
230 241 230 226 215 226 216 224 226 197 187 210 185 190 191 186 180 188 189 192 194 194 192 189 196 194 195 202 203 206 206 205 208 209 204 209 209 214 223 220 222 213 175 176 204 242 274 125 200
226 229 235 233 215 221 237 237 228 226 184 197 204 190 193 190 183 185 189 194 195 195 193 190 193 196 196 205 201 204 207 218 205 211 208 211 212 218 226 214 216 212 226 193 192 210 253 253 184
220 222 238 238 240 219 206 234 219 223 198 188 203 194 196 195 191 182 190 193 196 196 194 194 191 195 198 205 200 201 202 204 211 210 209 207 208 216 220 210 214 210 214 174 177 205 242 253 173
228 218 218 234 241 246 241 219 231 201 212 196 201 199 196 195 193 188 192 194 196 195 194 196 192 195 198 198 209 200 209 208 208 209 210 204 203 210 214 212 211 212 215 196 178 194 215 211 258
220 227 227 217 232 237 234 238 232 226 208 201 192 203 196 192 191 197 190 191 195 194 196 194 191 196 199 197 206 207 204 215 208 206 206 206 214 208 215 213 206 210 211 212 194 201 207 225 217
206 208 206 217 218 226 219 231 233 229 220 208 204 200 200 191 195 190 190 190 192 191 192 193 191 195 198 200 201 208 206 210 216 208 213 209 211 216 208 208 207 212 213 213 210 200 208 213 220
201 209 213 209 217 225 228 224 228 235 247 233 200 209 191 188 192 193 193 191 191 191 189 194 191 196 198 202 203 205 205 207 213 212 212 214 215 216 216 197 205 214 212 213 210 214 213 212 218
195 214 217 236 213 232 216 219 238 229 218 224 221 200 205 179 191 193 193 194 192 192 191 193 194 195 198 201 203 206 207 210 211 215 215 216 219 224 205 198 203 212 215 212 212 217 209 217 213
227 205 216 235 252 223 233 236 207 206 216 207 208 211 210 199 185 190 197 194 196 197 195 196 198 197 198 201 203 205 208 209 213 215 215 216 221 219 219 200 209 211 212 214 211 215 219 212 216
208 214 213 227 232 239 240 227 221 192 207 214 208 207 209 201 180 190 194 198 198 198 200 200 201 200 200 202 204 205 207 209 210 215 214 216 216 217 220 205 204 209 212 211 211 219 221 210 218
212 213 201 221 217 238 272 169 32 158 196 190 211 208 211 208 186 191 192 197 196 200 201 202 203 205 205 205 205 206 207 207 209 212 214 214 215 215 214 213 207 209 211 211 212 215 222 217 215